<?xml version="1.0" encoding="UTF-8" standalone="no" ?>
<gpx xmlns="http://www.topografix.com/GPX/1/1" xmlns:xsi="http://www.w3.org/2001/XMLSchema-instance" xsi:schemaLocation="http://www.topografix.com/GPX/1/1 http://www.topografix.com/GPX/1/1/gpx.xsd" version="1.1" creator="VisuGPX - https://www.visugpx.com">
  <metadata>
    <name>La route du cidre</name>
    <desc><![CDATA[Chemin de petite randonnée dans la forêt d\'Othe]]></desc>
  </metadata>
  <trk>
    <name><![CDATA[track]]></name>
    <trkseg>
      <trkpt lat="48.13165" lon="3.48701">
        <ele>141.797501</ele>
        <time>2008-01-22T00:00:00Z</time>
      </trkpt>
      <trkpt lat="48.13065" lon="3.4886">
        <ele>147.247131</ele>
        <time>2008-01-22T00:00:00Z</time>
      </trkpt>
      <trkpt lat="48.12981" lon="3.48704">
        <ele>157.845001</ele>
        <time>2008-01-22T00:00:00Z</time>
      </trkpt>
      <trkpt lat="48.12842" lon="3.48633">
        <ele>173.762131</ele>
        <time>2008-01-22T00:00:00Z</time>
      </trkpt>
      <trkpt lat="48.12633" lon="3.48652">
        <ele>183.606125</ele>
        <time>2008-01-22T00:00:00Z</time>
      </trkpt>
      <trkpt lat="48.12487" lon="3.48606">
        <ele>195.574936</ele>
        <time>2008-01-22T00:00:00Z</time>
      </trkpt>
      <trkpt lat="48.12361" lon="3.48458">
        <ele>202.794998</ele>
        <time>2008-01-22T00:00:00Z</time>
      </trkpt>
      <trkpt lat="48.12138" lon="3.48645">
        <ele>190.272064</ele>
        <time>2008-01-22T00:00:00Z</time>
      </trkpt>
      <trkpt lat="48.11918" lon="3.48439">
        <ele>187.781693</ele>
        <time>2008-01-22T00:00:00Z</time>
      </trkpt>
      <trkpt lat="48.11682" lon="3.48383">
        <ele>193.421814</ele>
        <time>2008-01-22T00:00:00Z</time>
      </trkpt>
      <trkpt lat="48.11641" lon="3.48446">
        <ele>200.932495</ele>
        <time>2008-01-22T00:00:00Z</time>
      </trkpt>
      <trkpt lat="48.11424" lon="3.48179">
        <ele>208.235687</ele>
        <time>2008-01-22T00:00:00Z</time>
      </trkpt>
      <trkpt lat="48.11305" lon="3.48103">
        <ele>216.581558</ele>
        <time>2008-01-22T00:00:00Z</time>
      </trkpt>
      <trkpt lat="48.11204" lon="3.48134">
        <ele>219.648438</ele>
        <time>2008-01-22T00:00:00Z</time>
      </trkpt>
      <trkpt lat="48.11006" lon="3.4817">
        <ele>221.872437</ele>
        <time>2008-01-22T00:00:00Z</time>
      </trkpt>
      <trkpt lat="48.10896" lon="3.48383">
        <ele>214.047501</ele>
        <time>2008-01-22T00:00:00Z</time>
      </trkpt>
      <trkpt lat="48.10825" lon="3.48472">
        <ele>218.554993</ele>
        <time>2008-01-22T00:00:00Z</time>
      </trkpt>
      <trkpt lat="48.10787" lon="3.48632">
        <ele>220.572495</ele>
        <time>2008-01-22T00:00:00Z</time>
      </trkpt>
      <trkpt lat="48.10555" lon="3.4853">
        <ele>224.102554</ele>
        <time>2008-01-22T00:00:00Z</time>
      </trkpt>
      <trkpt lat="48.10354" lon="3.48629">
        <ele>223.197495</ele>
        <time>2008-01-22T00:00:00Z</time>
      </trkpt>
      <trkpt lat="48.10274" lon="3.48292">
        <ele>230.197495</ele>
        <time>2008-01-22T00:00:00Z</time>
      </trkpt>
      <trkpt lat="48.10068" lon="3.47915">
        <ele>232.257309</ele>
        <time>2008-01-22T00:00:00Z</time>
      </trkpt>
      <trkpt lat="48.09957" lon="3.48221">
        <ele>236.974182</ele>
        <time>2008-01-22T00:00:00Z</time>
      </trkpt>
      <trkpt lat="48.0985" lon="3.48588">
        <ele>239.396561</ele>
        <time>2008-01-22T00:00:00Z</time>
      </trkpt>
      <trkpt lat="48.0981" lon="3.48752">
        <ele>240.975006</ele>
        <time>2008-01-22T00:00:00Z</time>
      </trkpt>
      <trkpt lat="48.09781" lon="3.48979">
        <ele>238.072495</ele>
        <time>2008-01-22T00:00:00Z</time>
      </trkpt>
      <trkpt lat="48.09764" lon="3.49385">
        <ele>234.470932</ele>
        <time>2008-01-22T00:00:00Z</time>
      </trkpt>
      <trkpt lat="48.09675" lon="3.49917">
        <ele>241</ele>
        <time>2008-01-22T00:00:00Z</time>
      </trkpt>
      <trkpt lat="48.09684" lon="3.50209">
        <ele>241</ele>
        <time>2008-01-22T00:00:00Z</time>
      </trkpt>
      <trkpt lat="48.09619" lon="3.50604">
        <ele>240.824997</ele>
        <time>2008-01-22T00:00:00Z</time>
      </trkpt>
      <trkpt lat="48.09476" lon="3.51218">
        <ele>236.265945</ele>
        <time>2008-01-22T00:00:00Z</time>
      </trkpt>
      <trkpt lat="48.09432" lon="3.51393">
        <ele>230.908752</ele>
        <time>2008-01-22T00:00:00Z</time>
      </trkpt>
      <trkpt lat="48.09434" lon="3.51564">
        <ele>228.433746</ele>
        <time>2008-01-22T00:00:00Z</time>
      </trkpt>
      <trkpt lat="48.09418" lon="3.51755">
        <ele>226.960007</ele>
        <time>2008-01-22T00:00:00Z</time>
      </trkpt>
      <trkpt lat="48.09401" lon="3.51854">
        <ele>228.302505</ele>
        <time>2008-01-22T00:00:00Z</time>
      </trkpt>
      <trkpt lat="48.09418" lon="3.51755">
        <ele>226.960007</ele>
        <time>2008-01-22T00:00:00Z</time>
      </trkpt>
      <trkpt lat="48.09434" lon="3.51564">
        <ele>228.433746</ele>
        <time>2008-01-22T00:00:00Z</time>
      </trkpt>
      <trkpt lat="48.09432" lon="3.51393">
        <ele>230.908752</ele>
        <time>2008-01-22T00:00:00Z</time>
      </trkpt>
      <trkpt lat="48.09866" lon="3.51556">
        <ele>235.033569</ele>
        <time>2008-01-22T00:00:00Z</time>
      </trkpt>
      <trkpt lat="48.10019" lon="3.5224">
        <ele>234.043564</ele>
        <time>2008-01-22T00:00:00Z</time>
      </trkpt>
      <trkpt lat="48.10156" lon="3.52895">
        <ele>231.347504</ele>
        <time>2008-01-22T00:00:00Z</time>
      </trkpt>
      <trkpt lat="48.10255" lon="3.53327">
        <ele>225.212311</ele>
        <time>2008-01-22T00:00:00Z</time>
      </trkpt>
      <trkpt lat="48.10342" lon="3.53382">
        <ele>224.652191</ele>
        <time>2008-01-22T00:00:00Z</time>
      </trkpt>
      <trkpt lat="48.10452" lon="3.53385">
        <ele>226.649994</ele>
        <time>2008-01-22T00:00:00Z</time>
      </trkpt>
      <trkpt lat="48.10539" lon="3.53279">
        <ele>230.225006</ele>
        <time>2008-01-22T00:00:00Z</time>
      </trkpt>
      <trkpt lat="48.10826" lon="3.53494">
        <ele>220.580811</ele>
        <time>2008-01-22T00:00:00Z</time>
      </trkpt>
      <trkpt lat="48.11011" lon="3.53686">
        <ele>210.722931</ele>
        <time>2008-01-22T00:00:00Z</time>
      </trkpt>
      <trkpt lat="48.11399" lon="3.53984">
        <ele>212.740814</ele>
        <time>2008-01-22T00:00:00Z</time>
      </trkpt>
      <trkpt lat="48.11552" lon="3.54212">
        <ele>226.402756</ele>
        <time>2008-01-22T00:00:00Z</time>
      </trkpt>
      <trkpt lat="48.11789" lon="3.54157">
        <ele>240.225006</ele>
        <time>2008-01-22T00:00:00Z</time>
      </trkpt>
      <trkpt lat="48.1193" lon="3.54234">
        <ele>239.965317</ele>
        <time>2008-01-22T00:00:00Z</time>
      </trkpt>
      <trkpt lat="48.11988" lon="3.53766">
        <ele>233.797501</ele>
        <time>2008-01-22T00:00:00Z</time>
      </trkpt>
      <trkpt lat="48.12069" lon="3.53385">
        <ele>233.481934</ele>
        <time>2008-01-22T00:00:00Z</time>
      </trkpt>
      <trkpt lat="48.12153" lon="3.53175">
        <ele>238.75827</ele>
        <time>2008-01-22T00:00:00Z</time>
      </trkpt>
      <trkpt lat="48.12256" lon="3.53265">
        <ele>233.823792</ele>
        <time>2008-01-22T00:00:00Z</time>
      </trkpt>
      <trkpt lat="48.12317" lon="3.53415">
        <ele>229.957504</ele>
        <time>2008-01-22T00:00:00Z</time>
      </trkpt>
      <trkpt lat="48.1233" lon="3.5353">
        <ele>227.775269</ele>
        <time>2008-01-22T00:00:00Z</time>
      </trkpt>
      <trkpt lat="48.12407" lon="3.53481">
        <ele>228.118515</ele>
        <time>2008-01-22T00:00:00Z</time>
      </trkpt>
      <trkpt lat="48.12455" lon="3.53543">
        <ele>228</ele>
        <time>2008-01-22T00:00:00Z</time>
      </trkpt>
      <trkpt lat="48.12407" lon="3.53481">
        <ele>228.118515</ele>
        <time>2008-01-22T00:00:00Z</time>
      </trkpt>
      <trkpt lat="48.1233" lon="3.5353">
        <ele>227.775269</ele>
        <time>2008-01-22T00:00:00Z</time>
      </trkpt>
      <trkpt lat="48.12317" lon="3.53415">
        <ele>229.957504</ele>
        <time>2008-01-22T00:00:00Z</time>
      </trkpt>
      <trkpt lat="48.12256" lon="3.53265">
        <ele>233.823792</ele>
        <time>2008-01-22T00:00:00Z</time>
      </trkpt>
      <trkpt lat="48.12153" lon="3.53175">
        <ele>238.75827</ele>
        <time>2008-01-22T00:00:00Z</time>
      </trkpt>
      <trkpt lat="48.12444" lon="3.52463">
        <ele>235.033569</ele>
        <time>2008-01-22T00:00:00Z</time>
      </trkpt>
      <trkpt lat="48.12611" lon="3.5199">
        <ele>220.03006</ele>
        <time>2008-01-22T00:00:00Z</time>
      </trkpt>
      <trkpt lat="48.12678" lon="3.51793">
        <ele>221.300064</ele>
        <time>2008-01-22T00:00:00Z</time>
      </trkpt>
      <trkpt lat="48.12753" lon="3.51694">
        <ele>222</ele>
        <time>2008-01-22T00:00:00Z</time>
      </trkpt>
      <trkpt lat="48.128" lon="3.51521">
        <ele>218.979996</ele>
        <time>2008-01-22T00:00:00Z</time>
      </trkpt>
      <trkpt lat="48.12855" lon="3.5121">
        <ele>211.016815</ele>
        <time>2008-01-22T00:00:00Z</time>
      </trkpt>
      <trkpt lat="48.12931" lon="3.50838">
        <ele>220.893433</ele>
        <time>2008-01-22T00:00:00Z</time>
      </trkpt>
      <trkpt lat="48.12968" lon="3.50685">
        <ele>221</ele>
        <time>2008-01-22T00:00:00Z</time>
      </trkpt>
      <trkpt lat="48.13025" lon="3.50219">
        <ele>205.059998</ele>
        <time>2008-01-22T00:00:00Z</time>
      </trkpt>
      <trkpt lat="48.13002" lon="3.5">
        <ele>183.276123</ele>
        <time>2008-01-22T00:00:00Z</time>
      </trkpt>
      <trkpt lat="48.13061" lon="3.4971">
        <ele>171.636444</ele>
        <time>2008-01-22T00:00:00Z</time>
      </trkpt>
      <trkpt lat="48.13122" lon="3.49442">
        <ele>160.360306</ele>
        <time>2008-01-22T00:00:00Z</time>
      </trkpt>
      <trkpt lat="48.13165" lon="3.49154">
        <ele>152.668869</ele>
        <time>2008-01-22T00:00:00Z</time>
      </trkpt>
      <trkpt lat="48.1315" lon="3.48919">
        <ele>145.131622</ele>
        <time>2008-01-22T00:00:00Z</time>
      </trkpt>
      <trkpt lat="48.13145" lon="3.48741">
        <ele>142.843369</ele>
        <time>2008-01-22T00:00:00Z</time>
      </trkpt>
    </trkseg>
  </trk>
</gpx>